Auburn, CA

2:43 AM PST on November 12, 2019 (GMT -0800)
Auburn Municipal

Weather History for KAUN - September, 2019

Change the Weather History Date:

Friday, September 13, 2019

  Actual Average Record
Temperature  
Mean Temperature 80 °F -  
Max Temperature 93 °F 86 °F 104 °F (1979)
Min Temperature 66 °F 57 °F 46 °F (1970)
Cooling Degree Days 14    
Growing Degree Days 30 (Base 50)    
Moisture  
Dew Point 38 °F    
Average Humidity 24    
Maximum Humidity 38    
Minimum Humidity 12    
Precipitation  
Precipitation 0.00 in - - ()
Sea Level Pressure  
Sea Level Pressure 30.03 in    
Wind  
Wind Speed 4 mph ()    
Max Wind Speed 10 mph    
Max Gust Speed 16 mph    
Visibility 10.0 miles    
Events      
Averages and records for this station are not official NWS values.
T = Trace of Precipitation, MM = Missing Value Source: Averaged Metar Reports

Daily Weather History Graph

Daily Weather History Graph

Search for Another Location

Airport or City:

Astronomy

Sep. 13, 2019 Rise Set
Actual Time 6:43 AM PDT 7:16 PM PDT
Civil Twilight 6:16 AM PDT 7:42 PM PDT
Nautical Twilight 5:45 AM PDT 8:14 PM PDT
Astronomical Twilight 5:12 AM PDT 8:46 PM PDT
Moon 7:31 PM PDT (9/13) 6:06 AM PDT (9/13)
Length of Visible Light 13h 25m
Length of Day
12h 32m
Full, 100% of the Moon is Illuminated
Sep 13
Full
Sep 13
Full
Sep 21
Last Quarter
Sep 28
New
Oct 5
First Quarter

Hourly Weather History & Observations

Time (PDT) Temp. Dew Point Humidity Pressure Visibility Wind Dir Wind Speed Gust Speed Precip Events Conditions
12:15 AM 71.6 °F 37.4 °F 29% 30.04 in 10.0 mi East 5.8 mph - N/A   Clear
12:35 AM 71.6 °F 37.4 °F 29% 30.04 in 10.0 mi East 8.1 mph - N/A   Clear
12:55 AM 71.6 °F 37.4 °F 29% 30.05 in 10.0 mi ESE 6.9 mph - N/A   Clear
1:15 AM 69.8 °F 37.4 °F 31% 30.04 in 10.0 mi East 6.9 mph - N/A   Clear
1:35 AM 69.8 °F 35.6 °F 28% 30.05 in 10.0 mi East 5.8 mph - N/A   Clear
1:55 AM 69.8 °F 35.6 °F 28% 30.05 in 10.0 mi East 6.9 mph - N/A   Clear
2:15 AM 69.8 °F 35.6 °F 28% 30.04 in 10.0 mi Calm Calm - N/A   Clear
2:35 AM 68.0 °F 35.6 °F 30% 30.04 in 10.0 mi Calm Calm - N/A   Clear
2:55 AM 69.8 °F 35.6 °F 28% 30.04 in 10.0 mi East 8.1 mph - N/A   Clear
3:15 AM 69.8 °F 35.6 °F 28% 30.03 in 10.0 mi East 9.2 mph - N/A   Clear
3:35 AM 69.8 °F 35.6 °F 28% 30.03 in 10.0 mi East 8.1 mph - N/A   Clear
3:55 AM 69.8 °F 35.6 °F 28% 30.03 in 10.0 mi East 8.1 mph - N/A   Clear
4:15 AM 69.8 °F 33.8 °F 27% 30.03 in 10.0 mi East 8.1 mph - N/A   Clear
4:35 AM 68.0 °F 33.8 °F 28% 30.03 in 10.0 mi East 5.8 mph - N/A   Clear
4:55 AM 68.0 °F 33.8 °F 28% 30.03 in 10.0 mi East 6.9 mph - N/A   Clear
5:15 AM 68.0 °F 33.8 °F 28% 30.04 in 10.0 mi Calm Calm - N/A   Clear
5:35 AM 66.2 °F 33.8 °F 30% 30.04 in 10.0 mi East 5.8 mph - N/A   Clear
5:55 AM 66.2 °F 33.8 °F 30% 30.05 in 10.0 mi Calm Calm - N/A   Clear
6:15 AM 68.0 °F 33.8 °F 28% 30.05 in 10.0 mi Calm Calm - N/A   Clear
6:35 AM 68.0 °F 33.8 °F 28% 30.05 in 10.0 mi East 3.5 mph - N/A   Clear
6:55 AM 68.0 °F 33.8 °F 28% 30.05 in 10.0 mi East 8.1 mph - N/A   Clear
7:15 AM 69.8 °F 33.8 °F 27% 30.05 in 10.0 mi East 9.2 mph - N/A   Clear
7:35 AM 71.6 °F 33.8 °F 25% 30.06 in 10.0 mi East 10.4 mph - N/A   Clear
7:55 AM 71.6 °F 35.6 °F 27% 30.06 in 10.0 mi East 10.4 mph - N/A   Clear
8:15 AM 73.4 °F 35.6 °F 25% 30.06 in 10.0 mi East 10.4 mph 16.1 mph N/A   Clear
8:35 AM 75.2 °F 35.6 °F 24% 30.06 in 10.0 mi East 9.2 mph - N/A   Clear
8:55 AM 77.0 °F 37.4 °F 24% 30.07 in 10.0 mi East 6.9 mph - N/A   Clear
9:15 AM 78.8 °F 39.2 °F 24% 30.07 in 10.0 mi East 3.5 mph - N/A   Clear
9:35 AM 82.4 °F 39.2 °F 21% 30.07 in 10.0 mi Variable 4.6 mph - N/A   Clear
9:55 AM 84.2 °F 39.2 °F 20% 30.07 in 10.0 mi Calm Calm - N/A   Clear
10:15 AM 84.2 °F 39.2 °F 20% 30.07 in 10.0 mi Calm Calm - N/A   Clear
10:35 AM 86.0 °F 39.2 °F 19% 30.07 in 10.0 mi Calm Calm - N/A   Clear
10:55 AM 87.8 °F 37.4 °F 17% 30.07 in 10.0 mi Calm Calm - N/A   Clear
11:15 AM 87.8 °F 42.8 °F 21% 30.07 in 10.0 mi Calm Calm - N/A   Clear
11:35 AM 87.8 °F 41.0 °F 19% 30.07 in 10.0 mi Calm Calm - N/A   Clear
11:55 AM 87.8 °F 41.0 °F 19% 30.07 in 10.0 mi West 5.8 mph - N/A   Clear
12:15 PM 89.6 °F 41.0 °F 18% 30.07 in 10.0 mi Calm Calm - N/A   Clear
12:35 PM 89.6 °F 41.0 °F 18% 30.06 in 9.0 mi Variable 3.5 mph - N/A   Clear
1:15 PM 91.4 °F 39.2 °F 16% 30.05 in 10.0 mi SW 5.8 mph - N/A   Clear
1:35 PM 91.4 °F 37.4 °F 15% 30.05 in 9.0 mi SW 6.9 mph - N/A   Clear
1:55 PM 91.4 °F 37.4 °F 15% 30.04 in 10.0 mi SSW 6.9 mph - N/A   Clear
2:15 PM 91.4 °F 35.6 °F 14% 30.04 in 10.0 mi Calm Calm - N/A   Clear
2:35 PM 91.4 °F 35.6 °F 14% 30.03 in 10.0 mi SSW 4.6 mph - N/A   Clear
2:55 PM 91.4 °F 33.8 °F 13% 30.02 in 10.0 mi SW 6.9 mph - N/A   Clear
3:15 PM 91.4 °F 33.8 °F 13% 30.02 in 10.0 mi Calm Calm - N/A   Clear
3:35 PM 93.2 °F 33.8 °F 12% 30.01 in 10.0 mi SW 8.1 mph - N/A   Clear
3:55 PM 91.4 °F 35.6 °F 14% 30.01 in 10.0 mi Calm Calm - N/A   Clear
4:15 PM 91.4 °F 33.8 °F 13% 30.00 in 10.0 mi Calm Calm - N/A   Clear
4:35 PM 91.4 °F 37.4 °F 15% 30.00 in 10.0 mi Calm Calm - N/A   Clear
4:55 PM 91.4 °F 39.2 °F 16% 30.00 in 10.0 mi WSW 3.5 mph 11.5 mph N/A   Clear
5:15 PM 91.4 °F 39.2 °F 16% 30.00 in 10.0 mi Calm Calm - N/A   Clear
5:35 PM 89.6 °F 41.0 °F 18% 29.99 in 10.0 mi WSW 6.9 mph - N/A   Clear
5:55 PM 89.6 °F 42.8 °F 20% 30.00 in 10.0 mi West 5.8 mph - N/A   Clear
6:15 PM 87.8 °F 42.8 °F 21% 29.99 in 10.0 mi Calm Calm - N/A   Clear
6:35 PM 86.0 °F 42.8 °F 22% 29.99 in 10.0 mi Calm Calm - N/A   Clear
6:55 PM 84.2 °F 42.8 °F 23% 29.99 in 10.0 mi Calm Calm - N/A   Clear
7:15 PM 77.0 °F 42.8 °F 29% 29.99 in 10.0 mi Calm Calm - N/A   Clear
7:35 PM 73.4 °F 42.8 °F 33% 29.99 in 10.0 mi Calm Calm - N/A   Clear
7:55 PM 71.6 °F 42.8 °F 35% 29.99 in 10.0 mi Calm Calm - N/A   Clear
8:15 PM 69.8 °F 42.8 °F 38% 30.00 in 10.0 mi Calm Calm - N/A   Clear
8:35 PM 73.4 °F 42.8 °F 33% 30.00 in 10.0 mi Calm Calm - N/A   Clear
8:55 PM 71.6 °F 42.8 °F 35% 30.00 in 10.0 mi Calm Calm - N/A   Clear
9:15 PM 75.2 °F 42.8 °F 31% 30.00 in 10.0 mi Calm Calm - N/A   Clear
9:35 PM 75.2 °F 42.8 °F 31% 30.00 in 10.0 mi Calm Calm - N/A   Clear
9:55 PM 77.0 °F 42.8 °F 29% 30.00 in 10.0 mi East 9.2 mph - N/A   Clear
10:15 PM 77.0 °F 41.0 °F 28% 30.00 in 10.0 mi East 6.9 mph - N/A   Clear
10:35 PM 77.0 °F 41.0 °F 28% 30.00 in 10.0 mi East 6.9 mph - N/A   Clear
10:55 PM 75.2 °F 41.0 °F 29% 30.00 in 10.0 mi East 6.9 mph - N/A   Clear
11:15 PM 75.2 °F 41.0 °F 29% 30.00 in 10.0 mi East 4.6 mph - N/A   Clear
11:35 PM 73.4 °F 41.0 °F 31% 30.00 in 10.0 mi ESE 3.5 mph - N/A   Clear
11:55 PM 73.4 °F 41.0 °F 31% 30.00 in 10.0 mi Calm Calm - N/A   Clear